TimePST,TemperatureF,Dew PointF,Humidity,Sea Level PressureIn,VisibilityMPH,Wind Direction,Wind SpeedMPH,Gust SpeedMPH,PrecipitationIn,Events,Conditions,WindDirDegrees,DateUTC
12:53 AM,48.0,43.0,83,30.10,8.0,Calm,Calm,-,N/A,,Clear,0,2013-11-11 08:53:00
1:53 AM,46.9,42.1,83,30.12,7.0,Calm,Calm,-,N/A,,Clear,0,2013-11-11 09:53:00
2:06 AM,46.4,41.0,81,30.12,8.0,Calm,Calm,-,N/A,,Scattered Clouds,0,2013-11-11 10:06:00
2:16 AM,46.4,42.8,87,30.13,8.0,Calm,Calm,-,N/A,,Mostly Cloudy,0,2013-11-11 10:16:00
2:33 AM,46.4,42.8,87,30.12,7.0,ESE,3.5,-,N/A,,Mostly Cloudy,110,2013-11-11 10:33:00
2:53 AM,46.0,42.1,86,30.12,7.0,East,3.5,-,N/A,,Scattered Clouds,80,2013-11-11 10:53:00
3:02 AM,44.6,41.0,87,30.12,7.0,ENE,3.5,-,N/A,,Mostly Cloudy,60,2013-11-11 11:02:00
3:29 AM,48.2,44.6,87,30.13,6.0,Calm,Calm,-,N/A,,Overcast,0,2013-11-11 11:29:00
3:53 AM,50.0,45.0,83,30.12,6.0,Calm,Calm,-,N/A,,Haze,0,2013-11-11 11:53:00
4:53 AM,48.9,45.0,86,30.11,6.0,East,6.9,-,N/A,,Overcast,100,2013-11-11 12:53:00
5:17 AM,50.0,46.4,87,30.10,5.0,East,4.6,-,N/A,,Overcast,80,2013-11-11 13:17:00
5:53 AM,50.0,46.9,89,30.09,3.0,NE,3.5,-,N/A,,Overcast,40,2013-11-11 13:53:00
6:04 AM,50.0,46.4,87,30.09,2.0,Calm,Calm,-,N/A,,Overcast,0,2013-11-11 14:04:00
6:14 AM,48.2,46.4,93,30.10,1.5,Calm,Calm,-,N/A,,Overcast,0,2013-11-11 14:14:00
6:53 AM,48.9,46.9,93,30.11,2.0,NW,3.5,-,N/A,,Overcast,310,2013-11-11 14:53:00
7:31 AM,48.2,46.4,93,30.10,1.8,Calm,Calm,-,N/A,,Overcast,0,2013-11-11 15:31:00
7:38 AM,50.0,46.4,87,30.11,2.0,Calm,Calm,-,N/A,,Overcast,0,2013-11-11 15:38:00
7:53 AM,50.0,46.9,89,30.12,2.0,Calm,Calm,-,N/A,,Overcast,0,2013-11-11 15:53:00
8:32 AM,50.0,46.4,87,30.13,3.0,Calm,Calm,-,N/A,,Overcast,0,2013-11-11 16:32:00
8:53 AM,51.1,46.0,83,30.13,3.0,South,3.5,-,N/A,,Haze,180,2013-11-11 16:53:00
9:23 AM,53.6,46.4,77,30.13,3.0,Calm,Calm,-,N/A,,Haze,0,2013-11-11 17:23:00
9:53 AM,54.0,46.9,77,30.13,4.0,Calm,Calm,-,N/A,,Haze,0,2013-11-11 17:53:00
10:53 AM,57.9,46.9,67,30.14,5.0,Calm,Calm,-,N/A,,Haze,0,2013-11-11 18:53:00
11:53 AM,63.0,46.9,56,30.11,7.0,SE,3.5,-,N/A,,Clear,130,2013-11-11 19:53:00
12:53 PM,66.9,46.9,49,30.09,8.0,WNW,3.5,-,N/A,,Clear,300,2013-11-11 20:53:00
1:53 PM,69.1,44.1,40,30.08,10.0,East,4.6,-,N/A,,Clear,90,2013-11-11 21:53:00
2:53 PM,69.1,44.1,40,30.07,10.0,East,4.6,-,N/A,,Clear,90,2013-11-11 22:53:00
3:53 PM,68.0,44.1,42,30.09,10.0,East,4.6,-,N/A,,Clear,90,2013-11-11 23:53:00
4:53 PM,66.0,45.0,47,30.09,10.0,Calm,Calm,-,N/A,,Clear,0,2013-11-12 00:53:00
5:53 PM,63.0,45.0,52,30.09,10.0,Calm,Calm,-,N/A,,Clear,0,2013-11-12 01:53:00
6:53 PM,62.1,45.0,53,30.12,10.0,Calm,Calm,-,N/A,,Clear,0,2013-11-12 02:53:00
7:53 PM,60.1,45.0,57,30.14,10.0,Calm,Calm,-,N/A,,Clear,0,2013-11-12 03:53:00
8:53 PM,57.0,44.1,62,30.15,10.0,East,4.6,-,N/A,,Clear,80,2013-11-12 04:53:00
9:53 PM,57.0,43.0,59,30.16,10.0,Calm,Calm,-,N/A,,Clear,0,2013-11-12 05:53:00
10:53 PM,55.9,43.0,62,30.15,10.0,East,4.6,-,N/A,,Clear,90,2013-11-12 06:53:00
11:53 PM,57.0,45.0,64,30.16,10.0,Calm,Calm,-,N/A,,Clear,0,2013-11-12 07:53:00